Time,TemperatureF,DewpointF,PressureIn,WindDirection,WindDirectionDegrees,WindSpeedMPH,WindSpeedGustMPH,Humidity,HourlyPrecipIn,Conditions,Clouds,dailyrainin,SolarRadiationWatts/m^2,SoftwareType,DateUTC
2013-09-10 00:01:00,59.6,55.1,29.73,NNE,12,0.0,0.0,85,0.00,-RA,-RA,0.00,0.0,WeatherDisplay:10.37,2013-09-10 06:01:00,
2013-09-10 00:06:00,59.7,55.2,29.70,NNE,13,1.5,3.4,85,0.00,-RA,-RA,0.00,0.0,WeatherDisplay:10.37,2013-09-10 06:06:00,
2013-09-10 00:11:00,59.7,55.2,29.71,NNE,13,0.0,3.4,85,0.00,-RA,-RA,0.00,0.0,WeatherDisplay:10.37,2013-09-10 06:11:00,
2013-09-10 00:16:00,59.8,55.3,29.72,NNE,15,0.0,0.0,85,0.00,-RA,-RA,0.00,0.0,WeatherDisplay:10.37,2013-09-10 06:16:00,
2013-09-10 00:21:00,59.8,55.3,29.72,NNE,15,0.0,0.0,85,0.00,-RA,-RA,0.00,0.0,WeatherDisplay:10.37,2013-09-10 06:21:00,
2013-09-10 00:26:00,59.8,55.3,29.72,NNE,14,0.3,1.0,85,0.00,-RA,-RA,0.00,0.0,WeatherDisplay:10.37,2013-09-10 06:26:00,
2013-09-10 00:31:00,59.8,55.3,29.72,NNE,14,0.0,0.0,85,0.00,-RA,-RA,0.00,0.0,WeatherDisplay:10.37,2013-09-10 06:31:00,
2013-09-10 00:36:00,59.7,55.2,29.72,NNE,14,0.0,0.0,85,0.00,-RA,-RA,0.00,0.0,WeatherDisplay:10.37,2013-09-10 06:36:00,
2013-09-10 00:41:00,59.8,55.3,29.72,NNE,15,0.0,0.0,85,0.00,-RA,-RA,0.00,0.0,WeatherDisplay:10.37,2013-09-10 06:41:00,
2013-09-10 00:46:00,59.8,55.3,29.72,NNE,15,0.0,0.0,85,0.00,-RA,-RA,0.00,0.0,WeatherDisplay:10.37,2013-09-10 06:46:00,
2013-09-10 00:51:00,59.8,55.3,29.73,NNE,15,0.3,1.1,85,0.00,-RA,-RA,0.00,0.0,WeatherDisplay:10.37,2013-09-10 06:51:00,
2013-09-10 00:56:00,59.8,55.3,29.73,NNE,15,0.0,0.0,85,0.00,-RA,-RA,0.00,0.0,WeatherDisplay:10.37,2013-09-10 06:56:00,
2013-09-10 01:01:00,59.8,55.3,29.73,NNE,14,0.0,0.0,85,0.00,OVC,OVC,0.00,0.0,WeatherDisplay:10.37,2013-09-10 07:01:00,
2013-09-10 01:06:00,59.9,55.4,29.72,NNE,15,0.2,0.0,85,0.00,OVC,OVC,0.00,0.0,WeatherDisplay:10.37,2013-09-10 07:06:00,
2013-09-10 01:11:00,59.9,55.4,29.72,NNE,14,1.4,3.4,85,0.00,OVC,OVC,0.00,0.0,WeatherDisplay:10.37,2013-09-10 07:11:00,
2013-09-10 01:16:00,60.0,55.5,29.72,NNE,14,0.0,0.0,85,0.00,OVC,OVC,0.00,0.0,WeatherDisplay:10.37,2013-09-10 07:16:00,
2013-09-10 01:21:00,60.0,55.5,29.72,NNE,14,0.0,0.0,85,0.00,OVC,OVC,0.00,0.0,WeatherDisplay:10.37,2013-09-10 07:21:00,
2013-09-10 01:26:00,60.0,55.5,29.72,NNE,14,0.0,0.0,85,0.00,OVC,OVC,0.00,0.0,WeatherDisplay:10.37,2013-09-10 07:26:00,
2013-09-10 01:31:00,60.0,55.5,29.73,NNE,14,0.0,1.1,85,0.00,OVC,OVC,0.00,0.0,WeatherDisplay:10.37,2013-09-10 07:31:00,
2013-09-10 01:36:00,60.0,55.5,29.73,NNE,14,0.0,0.0,85,0.00,OVC,OVC,0.00,0.0,WeatherDisplay:10.37,2013-09-10 07:36:00,
2013-09-10 01:41:00,60.0,55.5,29.73,NNE,14,0.0,0.0,85,0.00,OVC,OVC,0.00,0.0,WeatherDisplay:10.37,2013-09-10 07:41:00,
2013-09-10 01:46:00,60.0,55.5,29.73,NNE,14,0.0,0.0,85,0.00,OVC,OVC,0.00,0.0,WeatherDisplay:10.37,2013-09-10 07:46:00,
2013-09-10 01:51:00,60.0,55.5,29.73,NNE,14,0.0,0.0,85,0.00,OVC,OVC,0.00,0.0,WeatherDisplay:10.37,2013-09-10 07:51:00,
2013-09-10 01:56:00,60.0,55.8,29.73,NNE,14,1.5,2.3,86,0.00,OVC,OVC,0.00,0.0,WeatherDisplay:10.37,2013-09-10 07:56:00,
2013-09-10 02:01:00,60.0,55.8,29.72,NNE,15,0.3,2.3,86,0.00,OVC,OVC,0.00,0.0,WeatherDisplay:10.37,2013-09-10 08:01:00,
2013-09-10 02:06:00,60.0,55.8,29.72,NNE,15,0.3,1.1,86,0.00,OVC,OVC,0.00,0.0,WeatherDisplay:10.37,2013-09-10 08:06:00,
2013-09-10 02:11:00,60.0,55.8,29.73,NNE,15,0.0,0.0,86,0.00,OVC,OVC,0.00,0.0,WeatherDisplay:10.37,2013-09-10 08:11:00,
2013-09-10 02:16:00,60.0,55.5,29.73,NNE,15,0.3,1.1,85,0.00,OVC,OVC,0.00,0.0,WeatherDisplay:10.37,2013-09-10 08:16:00,
2013-09-10 02:21:00,60.0,55.5,29.73,NNE,15,0.0,0.0,85,0.00,OVC,OVC,0.00,0.0,WeatherDisplay:10.37,2013-09-10 08:21:00,
2013-09-10 02:26:00,60.0,55.5,29.73,NNE,15,0.0,0.0,85,0.00,OVC,OVC,0.00,0.0,WeatherDisplay:10.37,2013-09-10 08:26:00,
2013-09-10 02:31:00,60.0,55.5,29.73,NNE,15,0.0,0.0,85,0.00,OVC,OVC,0.00,0.0,WeatherDisplay:10.37,2013-09-10 08:31:00,
2013-09-10 02:36:00,60.0,55.5,29.73,NNE,15,0.0,1.1,85,0.00,OVC,OVC,0.00,0.0,WeatherDisplay:10.37,2013-09-10 08:36:00,
2013-09-10 02:41:00,60.0,55.5,29.73,NNE,15,0.0,0.0,85,0.00,OVC,OVC,0.00,0.0,WeatherDisplay:10.37,2013-09-10 08:41:00,
2013-09-10 02:46:00,60.0,55.5,29.72,NNE,15,0.0,0.0,85,0.00,OVC,OVC,0.00,0.0,WeatherDisplay:10.37,2013-09-10 08:46:00,
2013-09-10 02:51:00,60.0,55.5,29.73,NNE,15,0.0,0.0,85,0.00,OVC,OVC,0.00,0.0,WeatherDisplay:10.37,2013-09-10 08:51:00,
2013-09-10 02:56:00,60.0,55.5,29.73,NNE,15,0.0,0.0,85,0.00,OVC,OVC,0.00,0.0,WeatherDisplay:10.37,2013-09-10 08:56:00,
2013-09-10 03:01:00,59.9,55.4,29.74,NNE,15,0.0,0.0,85,0.00,OVC,OVC,0.00,0.0,WeatherDisplay:10.37,2013-09-10 09:01:00,
2013-09-10 03:06:00,59.9,55.4,29.79,NNE,15,0.6,1.1,85,0.00,OVC,OVC,0.00,0.0,WeatherDisplay:10.37,2013-09-10 09:06:00,
2013-09-10 03:11:00,59.9,55.4,29.79,NNE,15,0.0,0.0,85,0.00,OVC,OVC,0.00,0.0,WeatherDisplay:10.37,2013-09-10 09:11:00,
2013-09-10 03:16:00,59.9,55.4,29.79,NNE,15,0.0,0.0,85,0.00,OVC,OVC,0.00,0.0,WeatherDisplay:10.37,2013-09-10 09:16:00,
2013-09-10 03:21:00,59.9,55.4,29.79,NNE,15,0.0,0.0,85,0.00,OVC,OVC,0.00,0.0,WeatherDisplay:10.37,2013-09-10 09:21:00,
2013-09-10 03:26:00,59.9,55.4,29.79,NNE,15,0.0,0.0,85,0.00,OVC,OVC,0.00,0.0,WeatherDisplay:10.37,2013-09-10 09:26:00,
2013-09-10 03:31:00,60.0,55.5,29.79,NNE,15,0.0,0.0,85,0.00,OVC,OVC,0.00,0.0,WeatherDisplay:10.37,2013-09-10 09:31:00,
2013-09-10 03:36:00,60.0,55.5,29.79,NNE,15,0.0,0.0,85,0.00,OVC,OVC,0.00,0.0,WeatherDisplay:10.37,2013-09-10 09:36:00,
2013-09-10 03:41:00,60.0,55.5,29.79,NNE,15,0.0,0.0,85,0.00,OVC,OVC,0.00,0.0,WeatherDisplay:10.37,2013-09-10 09:41:00,
2013-09-10 03:46:00,60.0,55.5,29.79,NNE,15,0.0,0.0,85,0.00,OVC,OVC,0.00,0.0,WeatherDisplay:10.37,2013-09-10 09:46:00,
2013-09-10 03:51:00,60.1,55.6,29.78,NNE,15,0.1,1.1,85,0.00,OVC,OVC,0.00,0.0,WeatherDisplay:10.37,2013-09-10 09:51:00,
2013-09-10 03:56:00,60.1,55.6,29.77,NNE,15,0.0,0.0,85,0.00,OVC,OVC,0.00,0.0,WeatherDisplay:10.37,2013-09-10 09:56:00,
2013-09-10 04:01:00,60.1,55.6,29.78,NNE,15,0.0,0.0,85,0.00,OVC,OVC,0.00,0.0,WeatherDisplay:10.37,2013-09-10 10:01:00,
2013-09-10 04:06:00,60.2,55.7,29.79,NNE,15,0.0,1.1,85,0.00,OVC,OVC,0.00,0.0,WeatherDisplay:10.37,2013-09-10 10:06:00,
2013-09-10 04:11:00,60.2,56.0,29.79,NNE,15,0.0,0.0,86,0.00,OVC,OVC,0.00,0.0,WeatherDisplay:10.37,2013-09-10 10:11:00,
2013-09-10 04:16:00,60.2,56.0,29.80,NNE,15,0.0,0.0,86,0.00,OVC,OVC,0.00,0.0,WeatherDisplay:10.37,2013-09-10 10:16:00,
2013-09-10 04:21:00,60.2,56.0,29.80,NNE,15,0.0,0.0,86,0.00,OVC,OVC,0.00,0.0,WeatherDisplay:10.37,2013-09-10 10:21:00,
2013-09-10 04:26:00,60.2,56.0,29.80,NNE,15,0.0,0.0,86,0.00,OVC,OVC,0.00,0.0,WeatherDisplay:10.37,2013-09-10 10:26:00,
2013-09-10 04:31:00,60.2,56.0,29.80,NNE,15,0.0,0.0,86,0.00,OVC,OVC,0.00,0.0,WeatherDisplay:10.37,2013-09-10 10:31:00,
2013-09-10 04:36:00,60.1,55.6,29.80,NNE,15,0.0,0.0,85,0.00,OVC,OVC,0.00,0.0,WeatherDisplay:10.37,2013-09-10 10:36:00,
2013-09-10 04:41:00,60.1,55.6,29.80,NNE,15,0.0,0.0,85,0.00,OVC,OVC,0.00,0.0,WeatherDisplay:10.37,2013-09-10 10:41:00,
2013-09-10 04:46:00,60.0,55.5,29.80,NNE,15,0.0,0.0,85,0.00,OVC,OVC,0.00,0.0,WeatherDisplay:10.37,2013-09-10 10:46:00,
2013-09-10 04:51:00,60.0,55.5,29.81,NNE,15,0.0,0.0,85,0.00,OVC,OVC,0.00,0.0,WeatherDisplay:10.37,2013-09-10 10:51:00,
2013-09-10 04:56:00,60.0,55.8,29.81,NNE,15,0.0,0.0,86,0.00,OVC,OVC,0.00,0.0,WeatherDisplay:10.37,2013-09-10 10:56:00,
2013-09-10 05:01:00,59.9,55.7,29.80,NNE,15,0.2,0.0,86,0.00,OVC,OVC,0.00,0.0,WeatherDisplay:10.37,2013-09-10 11:01:00,
2013-09-10 05:06:00,60.0,55.8,29.84,NNE,15,0.0,0.0,86,0.00,OVC,OVC,0.00,0.0,WeatherDisplay:10.37,2013-09-10 11:06:00,
2013-09-10 05:11:00,60.0,55.8,29.84,NNE,15,0.3,3.4,86,0.00,OVC,OVC,0.00,0.0,WeatherDisplay:10.37,2013-09-10 11:11:00,
2013-09-10 05:16:00,60.0,55.8,29.84,NNE,15,0.0,0.0,86,0.00,OVC,OVC,0.00,0.0,WeatherDisplay:10.37,2013-09-10 11:16:00,
2013-09-10 05:21:00,60.1,55.9,29.84,NNE,15,0.1,2.3,86,0.00,OVC,OVC,0.00,0.0,WeatherDisplay:10.37,2013-09-10 11:21:00,
2013-09-10 05:26:00,60.1,55.9,29.84,NNE,15,0.0,0.0,86,0.00,OVC,OVC,0.00,0.0,WeatherDisplay:10.37,2013-09-10 11:26:00,
2013-09-10 05:31:00,60.1,55.9,29.85,NNE,15,0.0,2.3,86,0.00,OVC,OVC,0.00,0.0,WeatherDisplay:10.37,2013-09-10 11:31:00,
2013-09-10 05:36:00,60.2,56.0,29.85,NNE,15,0.0,1.1,86,0.00,OVC,OVC,0.00,0.0,WeatherDisplay:10.37,2013-09-10 11:36:00,
2013-09-10 05:41:00,60.2,56.0,29.85,NNE,15,0.2,3.4,86,0.00,OVC,OVC,0.00,0.0,WeatherDisplay:10.37,2013-09-10 11:41:00,
2013-09-10 05:46:00,60.2,56.0,29.85,NNE,15,0.1,1.1,86,0.00,OVC,OVC,0.00,0.0,WeatherDisplay:10.37,2013-09-10 11:46:00,
2013-09-10 05:51:00,60.1,55.9,29.85,NNE,15,0.0,1.1,86,0.00,OVC,OVC,0.00,0.0,WeatherDisplay:10.37,2013-09-10 11:51:00,
2013-09-10 05:56:00,60.1,55.9,29.85,NNE,15,0.0,0.0,86,0.00,OVC,OVC,0.00,0.0,WeatherDisplay:10.37,2013-09-10 11:56:00,
2013-09-10 06:01:00,60.1,55.9,29.85,NNE,15,0.0,1.1,86,0.00,OVC,OVC,0.00,0.0,WeatherDisplay:10.37,2013-09-10 12:01:00,
2013-09-10 06:06:00,60.1,55.9,29.86,NNE,15,0.0,1.1,86,0.00,OVC,OVC,0.00,0.0,WeatherDisplay:10.37,2013-09-10 12:06:00,
2013-09-10 06:11:00,60.1,55.9,29.86,NNE,15,0.0,1.1,86,0.00,BKN,BKN,0.00,0.0,WeatherDisplay:10.37,2013-09-10 12:11:00,
2013-09-10 06:16:00,60.0,55.8,29.86,NNE,15,0.7,1.1,86,0.00,BKN,BKN,0.00,0.0,WeatherDisplay:10.37,2013-09-10 12:16:00,
2013-09-10 06:21:00,60.0,56.1,29.87,NNE,15,0.4,2.3,87,0.00,BKN,BKN,0.00,0.0,WeatherDisplay:10.37,2013-09-10 12:21:00,
2013-09-10 06:26:00,60.0,56.1,29.87,NNE,15,0.0,0.0,87,0.00,BKN,BKN,0.00,0.0,WeatherDisplay:10.37,2013-09-10 12:26:00,
2013-09-10 06:31:00,59.9,56.0,29.88,NNE,15,0.0,0.0,87,0.00,BKN,BKN,0.00,0.0,WeatherDisplay:10.37,2013-09-10 12:31:00,
2013-09-10 06:36:00,59.9,56.0,29.88,NNE,15,0.1,1.1,87,0.00,BKN,BKN,0.00,0.0,WeatherDisplay:10.37,2013-09-10 12:36:00,
2013-09-10 06:41:00,59.9,56.0,29.88,NNE,15,0.3,1.1,87,0.00,BKN,BKN,0.00,0.0,WeatherDisplay:10.37,2013-09-10 12:41:00,
2013-09-10 06:46:00,59.8,55.9,29.88,NNE,17,0.8,1.1,87,0.00,BKN,BKN,0.00,0.0,WeatherDisplay:10.37,2013-09-10 12:46:00,
2013-09-10 06:51:00,59.8,55.9,29.88,NNE,22,0.6,2.3,87,0.00,BKN,BKN,0.00,5.0,WeatherDisplay:10.37,2013-09-10 12:51:00,
2013-09-10 06:56:00,59.8,55.9,29.88,NNE,25,0.4,3.4,87,0.00,BKN,BKN,0.00,11.0,WeatherDisplay:10.37,2013-09-10 12:56:00,
2013-09-10 07:01:00,59.8,55.9,29.89,NNE,26,0.1,1.0,87,0.00,BKN,BKN,0.00,16.0,WeatherDisplay:10.37,2013-09-10 13:01:00,
2013-09-10 07:06:00,59.8,55.9,29.90,NNE,26,1.2,2.3,87,0.00,BKN,BKN,0.00,19.0,WeatherDisplay:10.37,2013-09-10 13:06:00,
2013-09-10 07:11:00,59.8,55.9,29.90,NNE,26,0.3,2.3,87,0.00,OVC,OVC,0.00,21.0,WeatherDisplay:10.37,2013-09-10 13:11:00,
2013-09-10 07:16:00,59.8,55.9,29.90,NNE,26,0.6,3.4,87,0.00,OVC,OVC,0.00,25.0,WeatherDisplay:10.37,2013-09-10 13:16:00,
2013-09-10 07:21:00,59.8,55.9,29.90,NNE,29,0.2,2.3,87,0.00,OVC,OVC,0.00,33.0,WeatherDisplay:10.37,2013-09-10 13:21:00,
2013-09-10 07:26:00,59.8,55.9,29.90,NNE,29,0.2,2.3,87,0.00,OVC,OVC,0.00,30.0,WeatherDisplay:10.37,2013-09-10 13:26:00,
2013-09-10 07:31:00,59.8,55.9,29.91,NNE,29,0.0,0.0,87,0.00,OVC,OVC,0.00,25.0,WeatherDisplay:10.37,2013-09-10 13:31:00,
2013-09-10 07:36:00,59.8,55.9,29.91,NNE,29,1.2,3.4,87,0.00,OVC,OVC,0.00,30.0,WeatherDisplay:10.37,2013-09-10 13:36:00,
2013-09-10 07:41:00,59.8,55.9,29.91,NNE,33,1.2,4.6,87,0.00,OVC,OVC,0.00,33.0,WeatherDisplay:10.37,2013-09-10 13:41:00,
2013-09-10 07:46:00,59.8,55.9,29.91,NNE,32,2.0,3.4,87,0.00,OVC,OVC,0.00,35.0,WeatherDisplay:10.37,2013-09-10 13:46:00,
2013-09-10 07:51:00,59.8,55.9,29.91,NNE,33,0.4,1.1,87,0.00,OVC,OVC,0.00,25.0,WeatherDisplay:10.37,2013-09-10 13:51:00,
2013-09-10 07:56:00,59.9,56.0,29.91,NNE,33,0.8,2.0,87,0.00,OVC,OVC,0.00,18.0,WeatherDisplay:10.37,2013-09-10 13:56:00,
2013-09-10 08:01:00,59.9,56.0,29.92,NNE,33,0.4,2.3,87,0.00,OVC,OVC,0.00,18.0,WeatherDisplay:10.37,2013-09-10 14:01:00,
2013-09-10 08:06:00,59.9,56.0,29.92,NNE,33,1.5,2.3,87,0.00,OVC,OVC,0.00,16.0,WeatherDisplay:10.37,2013-09-10 14:06:00,
2013-09-10 08:11:00,60.0,56.1,29.92,NNE,33,0.5,2.3,87,0.00,OVC,OVC,0.00,26.0,WeatherDisplay:10.37,2013-09-10 14:11:00,
2013-09-10 08:16:00,60.0,56.1,29.92,NNE,33,0.3,1.1,87,0.00,OVC,OVC,0.00,30.0,WeatherDisplay:10.37,2013-09-10 14:16:00,
2013-09-10 08:21:00,60.0,56.1,29.92,NNE,33,0.0,0.0,87,0.00,OVC,OVC,0.00,26.0,WeatherDisplay:10.37,2013-09-10 14:21:00,
2013-09-10 08:26:00,60.1,56.2,29.92,NNE,33,0.0,1.1,87,0.00,OVC,OVC,0.00,26.0,WeatherDisplay:10.37,2013-09-10 14:26:00,
2013-09-10 08:31:00,60.1,56.2,29.92,NNE,33,0.5,3.0,87,0.00,OVC,OVC,0.00,30.0,WeatherDisplay:10.37,2013-09-10 14:31:00,
2013-09-10 08:36:00,60.1,55.9,29.93,NNE,33,0.8,1.0,86,0.00,OVC,OVC,0.00,40.0,WeatherDisplay:10.37,2013-09-10 14:36:00,
2013-09-10 08:41:00,60.2,56.3,29.93,NNE,33,1.4,3.4,87,0.00,OVC,OVC,0.00,44.0,WeatherDisplay:10.37,2013-09-10 14:41:00,
2013-09-10 08:46:00,60.2,56.3,29.93,NNE,33,0.1,0.0,87,0.00,OVC,OVC,0.00,53.0,WeatherDisplay:10.37,2013-09-10 14:46:00,
2013-09-10 08:51:00,60.3,56.1,29.93,NE,36,0.6,3.4,86,0.00,OVC,OVC,0.00,53.0,WeatherDisplay:10.37,2013-09-10 14:51:00,
2013-09-10 08:56:00,60.3,56.4,29.92,NE,46,1.4,3.4,87,0.00,OVC,OVC,0.00,53.0,WeatherDisplay:10.37,2013-09-10 14:56:00,
2013-09-10 09:01:00,60.4,56.5,29.93,NE,40,0.7,3.4,87,0.00,OVC,OVC,0.00,58.0,WeatherDisplay:10.37,2013-09-10 15:01:00,
2013-09-10 09:06:00,60.4,56.5,29.93,NE,51,0.3,2.3,87,0.00,OVC,OVC,0.00,62.0,WeatherDisplay:10.37,2013-09-10 15:06:00,
2013-09-10 09:11:00,60.5,56.6,29.93,NE,50,0.9,0.0,87,0.00,OVC,OVC,0.00,76.0,WeatherDisplay:10.37,2013-09-10 15:11:00,
2013-09-10 09:16:00,60.6,56.7,29.93,NE,51,0.0,0.0,87,0.00,OVC,OVC,0.00,113.0,WeatherDisplay:10.37,2013-09-10 15:16:00,
2013-09-10 09:21:00,60.6,56.7,29.93,NE,50,0.6,3.4,87,0.00,OVC,OVC,0.00,137.0,WeatherDisplay:10.37,2013-09-10 15:21:00,
2013-09-10 09:26:00,60.7,56.8,29.93,NE,49,1.1,0.0,87,0.00,OVC,OVC,0.00,123.0,WeatherDisplay:10.37,2013-09-10 15:26:00,
2013-09-10 09:31:00,60.7,56.8,29.93,NE,51,0.0,2.3,87,0.00,OVC,OVC,0.00,169.0,WeatherDisplay:10.37,2013-09-10 15:31:00,
2013-09-10 09:36:00,60.8,57.2,29.93,NE,51,1.2,3.4,88,0.00,OVC,OVC,0.00,121.0,WeatherDisplay:10.37,2013-09-10 15:36:00,
2013-09-10 09:41:00,60.9,57.0,29.93,NNE,29,2.4,4.6,87,0.00,OVC,OVC,0.00,116.0,WeatherDisplay:10.37,2013-09-10 15:41:00,
2013-09-10 09:46:00,61.0,57.4,29.94,NNE,28,1.7,2.0,88,0.00,OVC,OVC,0.00,125.0,WeatherDisplay:10.37,2013-09-10 15:46:00,
2013-09-10 09:51:00,61.1,57.5,29.94,NE,37,2.1,3.4,88,0.00,OVC,OVC,0.00,111.0,WeatherDisplay:10.37,2013-09-10 15:51:00,
2013-09-10 09:56:00,61.3,57.7,29.94,NE,36,3.1,4.6,88,0.00,OVC,OVC,0.00,116.0,WeatherDisplay:10.37,2013-09-10 15:56:00,
2013-09-10 10:01:00,61.4,57.8,29.94,NE,36,0.0,0.0,88,0.00,OVC,OVC,0.00,134.0,WeatherDisplay:10.37,2013-09-10 16:01:00,
2013-09-10 10:06:00,61.5,57.6,29.93,ENE,60,0.7,3.0,87,0.00,OVC,OVC,0.00,104.0,WeatherDisplay:10.37,2013-09-10 16:06:00,
2013-09-10 10:11:00,61.5,57.6,29.93,ENE,57,2.4,3.4,87,0.00,OVC,OVC,0.00,102.0,WeatherDisplay:10.37,2013-09-10 16:11:00,
2013-09-10 10:16:00,61.6,57.7,29.93,ENE,57,0.0,1.1,87,0.00,OVC,OVC,0.00,113.0,WeatherDisplay:10.37,2013-09-10 16:16:00,
2013-09-10 10:21:00,61.8,57.9,29.93,NE,42,0.5,2.3,87,0.00,OVC,OVC,0.00,118.0,WeatherDisplay:10.37,2013-09-10 16:21:00,
2013-09-10 10:26:00,61.9,58.0,29.93,NE,48,1.4,1.4,87,0.00,OVC,OVC,0.00,102.0,WeatherDisplay:10.37,2013-09-10 16:26:00,
2013-09-10 10:31:00,62.0,58.1,29.93,NE,49,2.0,3.0,87,0.00,OVC,OVC,0.00,91.0,WeatherDisplay:10.37,2013-09-10 16:31:00,
2013-09-10 10:36:00,61.9,58.0,29.93,NE,44,0.5,3.4,87,0.00,OVC,OVC,0.00,81.0,WeatherDisplay:10.37,2013-09-10 16:36:00,
2013-09-10 10:41:00,61.9,58.0,29.93,NE,44,2.2,3.4,87,0.00,OVC,OVC,0.00,81.0,WeatherDisplay:10.37,2013-09-10 16:41:00,
2013-09-10 10:46:00,61.9,58.0,29.94,NE,46,0.5,1.0,87,0.00,OVC,OVC,0.00,97.0,WeatherDisplay:10.37,2013-09-10 16:46:00,
2013-09-10 10:51:00,61.9,58.0,29.94,NE,44,1.0,3.0,87,0.00,OVC,OVC,0.00,121.0,WeatherDisplay:10.37,2013-09-10 16:51:00,
2013-09-10 10:56:00,61.9,58.0,29.94,NE,42,3.2,4.0,87,0.00,OVC,OVC,0.00,163.0,WeatherDisplay:10.37,2013-09-10 16:56:00,
2013-09-10 11:01:00,61.9,58.0,29.94,NE,40,0.5,3.0,87,0.00,OVC,OVC,0.00,144.0,WeatherDisplay:10.37,2013-09-10 17:01:00,
2013-09-10 11:06:00,62.0,58.1,29.94,NNE,20,0.5,5.8,87,0.00,OVC,OVC,0.00,156.0,WeatherDisplay:10.37,2013-09-10 17:06:00,
2013-09-10 11:11:00,61.9,58.0,29.93,NNE,19,3.5,6.9,87,0.00,OVC,OVC,0.00,204.0,WeatherDisplay:10.37,2013-09-10 17:11:00,
2013-09-10 11:16:00,62.0,58.1,29.93,NNE,16,1.4,4.6,87,0.00,OVC,OVC,0.00,274.0,WeatherDisplay:10.37,2013-09-10 17:16:00,
2013-09-10 11:21:00,62.2,58.6,29.93,North,355,1.1,3.4,88,0.00,OVC,OVC,0.00,304.0,WeatherDisplay:10.37,2013-09-10 17:21:00,
2013-09-10 11:26:00,62.6,59.0,29.93,NNE,20,4.3,6.0,88,0.00,OVC,OVC,0.00,304.0,WeatherDisplay:10.37,2013-09-10 17:26:00,
2013-09-10 11:31:00,62.6,58.7,29.93,NNE,22,1.4,2.3,87,0.00,OVC,OVC,0.00,302.0,WeatherDisplay:10.37,2013-09-10 17:31:00,
2013-09-10 11:36:00,62.7,58.8,29.94,NNE,16,2.1,5.8,87,0.00,OVC,OVC,0.00,283.0,WeatherDisplay:10.37,2013-09-10 17:36:00,
2013-09-10 11:41:00,62.8,58.9,29.93,NNE,19,0.5,3.4,87,0.00,OVC,OVC,0.00,244.0,WeatherDisplay:10.37,2013-09-10 17:41:00,
2013-09-10 11:46:00,62.9,58.6,29.94,NNE,18,1.7,3.4,86,0.00,OVC,OVC,0.00,227.0,WeatherDisplay:10.37,2013-09-10 17:46:00,
2013-09-10 11:51:00,63.2,58.9,29.93,NNE,19,1.1,2.3,86,0.00,OVC,OVC,0.00,241.0,WeatherDisplay:10.37,2013-09-10 17:51:00,
2013-09-10 11:56:00,63.5,59.2,29.92,NNE,18,0.3,3.4,86,0.00,OVC,OVC,0.00,309.0,WeatherDisplay:10.37,2013-09-10 17:56:00,
2013-09-10 12:01:00,64.1,59.5,29.92,NNE,18,1.8,3.4,85,0.00,OVC,OVC,0.00,381.0,WeatherDisplay:10.37,2013-09-10 18:01:00,
2013-09-10 12:06:00,64.5,59.6,29.91,NNE,20,0.9,3.4,84,0.00,OVC,OVC,0.00,469.0,WeatherDisplay:10.37,2013-09-10 18:06:00,
2013-09-10 12:11:00,64.8,59.9,29.91,NNE,21,3.4,6.0,84,0.00,OVC,OVC,0.00,445.0,WeatherDisplay:10.37,2013-09-10 18:11:00,
2013-09-10 12:16:00,65.3,60.0,29.92,NNE,29,0.1,4.6,83,0.00,OVC,OVC,0.00,621.0,WeatherDisplay:10.37,2013-09-10 18:16:00,
2013-09-10 12:21:00,66.8,60.8,29.90,NNE,31,0.3,3.0,81,0.00,OVC,OVC,0.00,555.0,WeatherDisplay:10.37,2013-09-10 18:21:00,
2013-09-10 12:26:00,67.4,60.3,29.90,North,11,0.5,5.8,78,0.00,OVC,OVC,0.00,338.0,WeatherDisplay:10.37,2013-09-10 18:26:00,
2013-09-10 12:31:00,67.5,60.0,29.89,North,10,1.3,3.4,77,0.00,OVC,OVC,0.00,311.0,WeatherDisplay:10.37,2013-09-10 18:31:00,
2013-09-10 12:36:00,67.7,59.9,29.89,NNE,24,0.7,4.6,76,0.00,OVC,OVC,0.00,309.0,WeatherDisplay:10.37,2013-09-10 18:36:00,
2013-09-10 12:41:00,67.7,59.9,29.89,NNE,31,0.0,3.4,76,0.00,OVC,OVC,0.00,308.0,WeatherDisplay:10.37,2013-09-10 18:41:00,
2013-09-10 12:46:00,67.6,59.8,29.89,NNE,19,0.2,3.4,76,0.00,OVC,OVC,0.00,265.0,WeatherDisplay:10.37,2013-09-10 18:46:00,
2013-09-10 12:51:00,67.5,59.7,29.89,NNE,17,1.7,4.6,76,0.00,OVC,OVC,0.00,422.0,WeatherDisplay:10.37,2013-09-10 18:51:00,
2013-09-10 12:56:00,67.5,60.0,29.89,North,355,2.3,3.4,77,0.00,OVC,OVC,0.00,420.0,WeatherDisplay:10.37,2013-09-10 18:56:00,
2013-09-10 13:01:00,67.4,59.9,29.90,NNE,14,0.7,4.0,77,0.00,OVC,OVC,0.00,524.0,WeatherDisplay:10.37,2013-09-10 19:01:00,
2013-09-10 13:06:00,67.1,59.6,29.90,NNE,22,2.1,4.6,77,0.00,OVC,OVC,0.00,427.0,WeatherDisplay:10.37,2013-09-10 19:06:00,
2013-09-10 13:11:00,67.0,59.5,29.90,WNW,292,2.8,5.8,77,0.00,OVC,OVC,0.00,534.0,WeatherDisplay:10.37,2013-09-10 19:11:00,
2013-09-10 13:16:00,67.1,60.0,29.90,NW,326,0.5,3.4,78,0.00,OVC,OVC,0.00,550.0,WeatherDisplay:10.37,2013-09-10 19:16:00,
2013-09-10 13:21:00,67.2,59.7,29.90,North,5,0.7,4.6,77,0.00,OVC,OVC,0.00,385.0,WeatherDisplay:10.37,2013-09-10 19:21:00,
2013-09-10 13:26:00,67.0,59.5,29.90,NNW,335,2.0,5.8,77,0.00,OVC,OVC,0.00,380.0,WeatherDisplay:10.37,2013-09-10 19:26:00,
2013-09-10 13:31:00,66.8,59.7,29.89,NNE,13,2.7,3.4,78,0.00,OVC,OVC,0.00,953.0,WeatherDisplay:10.37,2013-09-10 19:31:00,
2013-09-10 13:36:00,67.2,60.1,29.89,NNE,29,0.2,9.2,78,0.00,OVC,OVC,0.00,877.0,WeatherDisplay:10.37,2013-09-10 19:36:00,
2013-09-10 13:41:00,68.3,60.4,29.87,North,360,3.6,5.8,76,0.00,OVC,OVC,0.00,788.0,WeatherDisplay:10.37,2013-09-10 19:41:00,
2013-09-10 13:46:00,69.0,60.7,29.87,NNE,14,1.5,4.0,75,0.00,OVC,OVC,0.00,789.0,WeatherDisplay:10.37,2013-09-10 19:46:00,
2013-09-10 13:51:00,69.2,60.2,29.87,North,5,3.2,9.2,73,0.00,OVC,OVC,0.00,798.0,WeatherDisplay:10.37,2013-09-10 19:51:00,
2013-09-10 13:56:00,69.0,59.6,29.87,NNW,338,1.6,4.6,72,0.00,OVC,OVC,0.00,536.0,WeatherDisplay:10.37,2013-09-10 19:56:00,
2013-09-10 14:01:00,69.1,60.1,29.87,North,5,2.5,4.6,73,0.00,OVC,OVC,0.00,524.0,WeatherDisplay:10.37,2013-09-10 20:01:00,
2013-09-10 14:06:00,69.3,60.3,29.87,NNE,22,0.9,3.4,73,0.00,OVC,OVC,0.00,452.0,WeatherDisplay:10.37,2013-09-10 20:06:00,
2013-09-10 14:11:00,69.3,59.9,29.87,North,5,0.8,3.4,72,0.00,OVC,OVC,0.00,541.0,WeatherDisplay:10.37,2013-09-10 20:11:00,
2013-09-10 14:16:00,69.3,59.9,29.87,North,360,3.9,5.8,72,0.00,OVC,OVC,0.00,533.0,WeatherDisplay:10.37,2013-09-10 20:16:00,
2013-09-10 14:21:00,69.1,59.7,29.87,North,349,0.9,3.4,72,0.00,OVC,OVC,0.00,459.0,WeatherDisplay:10.37,2013-09-10 20:21:00,
2013-09-10 14:26:00,68.9,59.5,29.87,North,9,5.0,10.3,72,0.00,OVC,OVC,0.00,171.0,WeatherDisplay:10.37,2013-09-10 20:26:00,
2013-09-10 14:31:00,68.3,58.9,29.87,North,9,1.8,5.0,72,0.00,OVC,OVC,0.00,243.0,WeatherDisplay:10.37,2013-09-10 20:31:00,
2013-09-10 14:36:00,67.6,58.6,29.87,NNE,28,0.7,3.4,73,0.00,OVC,OVC,0.00,209.0,WeatherDisplay:10.37,2013-09-10 20:36:00,
2013-09-10 14:41:00,67.2,58.6,29.88,North,355,0.8,3.4,74,0.00,OVC,OVC,0.00,209.0,WeatherDisplay:10.37,2013-09-10 20:41:00,
2013-09-10 14:46:00,66.9,58.3,29.88,NNE,16,2.3,4.6,74,0.00,OVC,OVC,0.00,193.0,WeatherDisplay:10.37,2013-09-10 20:46:00,
2013-09-10 14:51:00,66.6,58.4,29.87,NNW,346,3.1,3.4,75,0.00,OVC,OVC,0.00,325.0,WeatherDisplay:10.37,2013-09-10 20:51:00,
2013-09-10 14:56:00,66.3,58.5,29.87,North,9,1.1,8.1,76,0.00,OVC,OVC,0.00,381.0,WeatherDisplay:10.37,2013-09-10 20:56:00,
2013-09-10 15:01:00,66.3,58.5,29.87,NNE,28,2.0,10.3,76,0.00,BKN,BKN,0.00,527.0,WeatherDisplay:10.37,2013-09-10 21:01:00,
2013-09-10 15:06:00,66.5,58.7,29.87,NW,304,2.2,11.5,76,0.00,BKN,BKN,0.00,276.0,WeatherDisplay:10.37,2013-09-10 21:06:00,
2013-09-10 15:11:00,66.5,58.7,29.87,NNE,22,2.0,4.0,76,0.00,BKN,BKN,0.00,315.0,WeatherDisplay:10.37,2013-09-10 21:11:00,
2013-09-10 15:16:00,66.3,58.5,29.87,NNE,21,1.0,6.9,76,0.00,BKN,BKN,0.00,380.0,WeatherDisplay:10.37,2013-09-10 21:16:00,
2013-09-10 15:21:00,66.5,58.7,29.87,NNW,336,3.6,11.5,76,0.00,BKN,BKN,0.00,380.0,WeatherDisplay:10.37,2013-09-10 21:21:00,
2013-09-10 15:26:00,66.9,59.1,29.87,NW,306,1.0,3.4,76,0.00,BKN,BKN,0.00,258.0,WeatherDisplay:10.37,2013-09-10 21:26:00,
2013-09-10 15:31:00,66.9,58.7,29.87,North,349,0.1,5.8,75,0.00,BKN,BKN,0.00,234.0,WeatherDisplay:10.37,2013-09-10 21:31:00,
2013-09-10 15:36:00,66.7,58.1,29.86,NNE,21,3.1,3.4,74,0.00,BKN,BKN,0.00,206.0,WeatherDisplay:10.37,2013-09-10 21:36:00,
2013-09-10 15:41:00,66.4,58.2,29.86,North,360,1.8,5.8,75,0.00,BKN,BKN,0.00,111.0,WeatherDisplay:10.37,2013-09-10 21:41:00,
2013-09-10 15:46:00,65.9,57.7,29.86,NNE,30,5.2,5.2,75,0.00,BKN,BKN,0.00,88.0,WeatherDisplay:10.37,2013-09-10 21:46:00,
2013-09-10 15:51:00,65.6,57.8,29.86,NNE,28,1.3,3.4,76,0.00,BKN,BKN,0.00,86.0,WeatherDisplay:10.37,2013-09-10 21:51:00,
2013-09-10 15:56:00,65.3,57.9,29.87,NW,313,2.6,4.6,77,0.00,BKN,BKN,0.00,130.0,WeatherDisplay:10.37,2013-09-10 21:56:00,
2013-09-10 16:01:00,65.1,57.7,29.87,NNW,341,0.8,3.4,77,0.00,BKN,BKN,0.00,139.0,WeatherDisplay:10.37,2013-09-10 22:01:00,
2013-09-10 16:06:00,65.0,58.0,29.87,WNW,289,0.1,3.4,78,0.00,BKN,BKN,0.00,97.0,WeatherDisplay:10.37,2013-09-10 22:06:00,
2013-09-10 16:11:00,64.9,57.9,29.87,NW,313,1.3,3.4,78,0.00,BKN,BKN,0.00,69.0,WeatherDisplay:10.37,2013-09-10 22:11:00,
2013-09-10 16:16:00,64.8,57.8,29.86,WNW,302,2.2,2.3,78,0.00,BKN,BKN,0.00,60.0,WeatherDisplay:10.37,2013-09-10 22:16:00,
2013-09-10 16:21:00,64.7,57.7,29.86,WNW,296,2.0,5.8,78,0.00,BKN,BKN,0.00,46.0,WeatherDisplay:10.37,2013-09-10 22:21:00,
2013-09-10 16:26:00,64.6,57.9,29.87,NW,317,0.4,1.1,79,0.00,BKN,BKN,0.00,60.0,WeatherDisplay:10.37,2013-09-10 22:26:00,
2013-09-10 16:31:00,64.5,57.8,29.86,WNW,302,0.0,3.4,79,0.00,BKN,BKN,0.00,69.0,WeatherDisplay:10.37,2013-09-10 22:31:00,
2013-09-10 16:36:00,64.5,58.2,29.87,North,360,0.7,1.1,80,0.00,BKN,BKN,0.00,77.0,WeatherDisplay:10.37,2013-09-10 22:36:00,
2013-09-10 16:41:00,64.5,58.2,29.86,NW,305,0.5,1.1,80,0.00,BKN,BKN,0.00,86.0,WeatherDisplay:10.37,2013-09-10 22:41:00,
2013-09-10 16:46:00,64.5,58.2,29.86,WNW,302,1.8,4.6,80,0.00,BKN,BKN,0.00,77.0,WeatherDisplay:10.37,2013-09-10 22:46:00,
2013-09-10 16:51:00,64.3,58.0,29.87,NW,306,0.7,7.0,80,0.00,BKN,BKN,0.00,33.0,WeatherDisplay:10.37,2013-09-10 22:51:00,
2013-09-10 16:56:00,64.3,58.3,29.87,WNW,286,1.9,3.4,81,0.00,BKN,BKN,0.00,14.0,WeatherDisplay:10.37,2013-09-10 22:56:00,
2013-09-10 17:01:00,64.3,58.3,29.88,WNW,286,1.3,3.4,81,0.00,BKN,BKN,0.00,9.0,WeatherDisplay:10.37,2013-09-10 23:01:00,
2013-09-10 17:06:00,64.3,58.7,29.90,WNW,285,1.0,2.3,82,0.04,RA,RA,0.05,5.0,WeatherDisplay:10.37,2013-09-10 23:06:00,
2013-09-10 17:11:00,64.3,59.0,29.89,WNW,286,1.8,2.3,83,0.16,RA,RA,0.18,25.0,WeatherDisplay:10.37,2013-09-10 23:11:00,
2013-09-10 17:16:00,63.9,58.6,29.89,NNE,24,0.0,0.0,83,0.25,RA,RA,0.26,39.0,WeatherDisplay:10.37,2013-09-10 23:16:00,
2013-09-10 17:21:00,63.5,58.6,29.89,NNE,28,0.3,0.0,84,0.27,RA,RA,0.27,56.0,WeatherDisplay:10.37,2013-09-10 23:21:00,
2013-09-10 17:26:00,63.2,58.6,29.90,NNE,30,0.7,3.4,85,0.27,RA,RA,0.27,62.0,WeatherDisplay:10.37,2013-09-10 23:26:00,
2013-09-10 17:31:00,62.8,58.5,29.90,NNE,17,0.6,3.4,86,0.27,BKN,BKN,0.27,105.0,WeatherDisplay:10.37,2013-09-10 23:31:00,
2013-09-10 17:36:00,62.6,58.7,29.90,NNE,24,2.3,6.9,87,0.27,BKN,BKN,0.27,97.0,WeatherDisplay:10.37,2013-09-10 23:36:00,
2013-09-10 17:41:00,62.3,58.4,29.90,North,360,0.0,4.6,87,0.27,BKN,BKN,0.27,130.0,WeatherDisplay:10.37,2013-09-10 23:41:00,
2013-09-10 17:46:00,62.2,58.6,29.91,NNE,14,1.0,3.4,88,0.27,BKN,BKN,0.27,113.0,WeatherDisplay:10.37,2013-09-10 23:46:00,
2013-09-10 17:51:00,62.2,58.6,29.91,North,10,1.9,4.6,88,0.27,OVC,OVC,0.27,111.0,WeatherDisplay:10.37,2013-09-10 23:51:00,
2013-09-10 17:56:00,62.0,58.4,29.91,NNE,18,0.9,2.0,88,0.27,OVC,OVC,0.27,111.0,WeatherDisplay:10.37,2013-09-10 23:56:00,
2013-09-10 18:01:00,62.0,58.7,29.91,NNE,17,0.0,5.8,89,0.27,OVC,OVC,0.27,69.0,WeatherDisplay:10.37,2013-09-11 00:01:00,
2013-09-10 18:06:00,61.9,58.6,29.91,NNE,17,0.0,0.0,89,0.23,OVC,OVC,0.27,40.0,WeatherDisplay:10.37,2013-09-11 00:06:00,
2013-09-10 18:11:00,61.9,58.6,29.92,NNE,17,0.0,3.4,89,0.11,OVC,OVC,0.27,35.0,WeatherDisplay:10.37,2013-09-11 00:11:00,
2013-09-10 18:16:00,61.8,58.8,29.92,NNE,15,0.6,1.1,90,0.02,OVC,OVC,0.27,26.0,WeatherDisplay:10.37,2013-09-11 00:16:00,
2013-09-10 18:21:00,61.8,58.8,29.92,NNE,17,2.1,2.3,90,0.00,BKN,BKN,0.27,28.0,WeatherDisplay:10.37,2013-09-11 00:21:00,
2013-09-10 18:26:00,61.7,58.7,29.91,NNE,32,1.3,3.4,90,0.00,BKN,BKN,0.27,28.0,WeatherDisplay:10.37,2013-09-11 00:26:00,
2013-09-10 18:31:00,61.7,58.7,29.92,NNE,32,0.0,0.0,90,0.00,BKN,BKN,0.27,19.0,WeatherDisplay:10.37,2013-09-11 00:31:00,
2013-09-10 18:36:00,61.7,58.7,29.92,NNE,31,1.5,3.4,90,0.00,BKN,BKN,0.27,21.0,WeatherDisplay:10.37,2013-09-11 00:36:00,
2013-09-10 18:41:00,61.7,58.7,29.92,NNE,31,0.0,2.0,90,0.00,BKN,BKN,0.27,30.0,WeatherDisplay:10.37,2013-09-11 00:41:00,
2013-09-10 18:46:00,61.6,58.9,29.92,NNE,29,1.1,5.8,91,0.00,BKN,BKN,0.27,25.0,WeatherDisplay:10.37,2013-09-11 00:46:00,
2013-09-10 18:51:00,61.4,58.7,29.93,NNE,29,0.5,3.4,91,0.00,OVC,OVC,0.27,16.0,WeatherDisplay:10.37,2013-09-11 00:51:00,
2013-09-10 18:56:00,61.3,58.7,29.93,NNE,29,0.5,1.0,91,0.00,OVC,OVC,0.27,12.0,WeatherDisplay:10.37,2013-09-11 00:56:00,
2013-09-10 19:01:00,61.2,58.6,29.93,NNE,29,0.0,0.0,91,0.00,OVC,OVC,0.27,5.0,WeatherDisplay:10.37,2013-09-11 01:01:00,
2013-09-10 19:06:00,61.2,58.6,29.93,NNE,29,1.3,0.0,91,0.00,OVC,OVC,0.27,0.0,WeatherDisplay:10.37,2013-09-11 01:06:00,
2013-09-10 19:11:00,61.2,58.6,29.93,NNE,29,0.0,2.3,91,0.00,OVC,OVC,0.27,0.0,WeatherDisplay:10.37,2013-09-11 01:11:00,
2013-09-10 19:16:00,61.2,58.6,29.93,NNE,29,0.0,0.0,91,0.00,OVC,OVC,0.27,0.0,WeatherDisplay:10.37,2013-09-11 01:16:00,
2013-09-10 19:21:00,61.1,58.5,29.94,NNE,29,0.3,2.0,91,0.00,OVC,OVC,0.27,0.0,WeatherDisplay:10.37,2013-09-11 01:21:00,
2013-09-10 19:26:00,61.1,58.5,29.94,NNE,29,0.3,2.0,91,0.00,OVC,OVC,0.27,0.0,WeatherDisplay:10.37,2013-09-11 01:26:00,
2013-09-10 19:31:00,61.1,58.5,29.94,NNE,29,0.0,0.0,91,0.00,OVC,OVC,0.27,0.0,WeatherDisplay:10.37,2013-09-11 01:31:00,
2013-09-10 19:36:00,61.1,58.5,29.94,NNE,29,0.1,1.0,91,0.00,OVC,OVC,0.27,0.0,WeatherDisplay:10.37,2013-09-11 01:36:00,
2013-09-10 19:41:00,61.0,58.7,29.94,NNE,29,0.0,0.0,92,0.00,OVC,OVC,0.27,0.0,WeatherDisplay:10.37,2013-09-11 01:41:00,
2013-09-10 19:46:00,61.0,58.7,29.95,NNE,29,0.0,0.0,92,0.00,OVC,OVC,0.27,0.0,WeatherDisplay:10.37,2013-09-11 01:46:00,
2013-09-10 19:51:00,60.9,58.6,29.95,NNE,29,0.0,0.0,92,0.00,OVC,OVC,0.27,0.0,WeatherDisplay:10.37,2013-09-11 01:51:00,
2013-09-10 19:56:00,60.9,58.6,29.96,NNE,29,0.0,0.0,92,0.00,OVC,OVC,0.27,0.0,WeatherDisplay:10.37,2013-09-11 01:56:00,
2013-09-10 20:01:00,60.9,58.6,29.95,NNE,29,0.0,0.0,92,0.00,BKN,BKN,0.27,0.0,WeatherDisplay:10.37,2013-09-11 02:01:00,
2013-09-10 20:06:00,60.9,58.6,29.95,NNE,29,0.5,1.1,92,0.01,RA,RA,0.28,0.0,WeatherDisplay:10.37,2013-09-11 02:06:00,
2013-09-10 20:11:00,60.9,58.6,29.95,NNE,29,0.0,1.1,92,0.01,RA,RA,0.28,0.0,WeatherDisplay:10.37,2013-09-11 02:11:00,
2013-09-10 20:16:00,60.9,58.6,29.96,NNE,29,0.6,3.4,92,0.02,RA,RA,0.29,0.0,WeatherDisplay:10.37,2013-09-11 02:16:00,
2013-09-10 20:21:00,60.8,58.5,29.96,NNE,29,0.0,2.3,92,0.02,RA,RA,0.29,0.0,WeatherDisplay:10.37,2013-09-11 02:21:00,
2013-09-10 20:26:00,60.8,58.5,29.96,NNE,29,0.1,1.0,92,0.02,BKN,BKN,0.29,0.0,WeatherDisplay:10.37,2013-09-11 02:26:00,
2013-09-10 20:31:00,60.8,58.5,29.96,NNE,29,0.0,0.0,92,0.03,RA,RA,0.30,0.0,WeatherDisplay:10.37,2013-09-11 02:31:00,
2013-09-10 20:36:00,60.8,58.5,29.97,NNE,29,1.6,3.4,92,0.03,RA,RA,0.31,0.0,WeatherDisplay:10.37,2013-09-11 02:36:00,
2013-09-10 20:41:00,60.7,58.4,29.96,NNE,29,0.0,1.1,92,0.04,RA,RA,0.32,0.0,WeatherDisplay:10.37,2013-09-11 02:41:00,
2013-09-10 20:46:00,60.8,58.5,29.97,NNE,29,0.0,3.4,92,0.05,RA,RA,0.32,0.0,WeatherDisplay:10.37,2013-09-11 02:46:00,
2013-09-10 20:51:00,60.7,58.4,29.97,NNE,29,0.4,4.0,92,0.05,RA,RA,0.32,0.0,WeatherDisplay:10.37,2013-09-11 02:51:00,
2013-09-10 20:56:00,60.5,58.2,29.97,NNE,29,0.0,3.4,92,0.05,BKN,BKN,0.32,0.0,WeatherDisplay:10.37,2013-09-11 02:56:00,
2013-09-10 21:01:00,60.5,58.2,29.97,NNE,29,0.0,0.0,92,0.05,-RA,-RA,0.32,0.0,WeatherDisplay:10.37,2013-09-11 03:01:00,
2013-09-10 21:06:00,60.4,58.1,29.97,NNE,29,1.0,3.4,92,0.05,-RA,-RA,0.33,0.0,WeatherDisplay:10.37,2013-09-11 03:06:00,
2013-09-10 21:11:00,60.4,58.4,29.97,NNE,29,0.0,0.0,93,0.05,-RA,-RA,0.33,0.0,WeatherDisplay:10.37,2013-09-11 03:11:00,
2013-09-10 21:16:00,60.3,58.3,29.97,NNE,29,0.0,1.1,93,0.04,-RA,-RA,0.33,0.0,WeatherDisplay:10.37,2013-09-11 03:16:00,
2013-09-10 21:21:00,60.3,58.3,29.97,NNE,29,1.6,3.4,93,0.04,-RA,-RA,0.33,0.0,WeatherDisplay:10.37,2013-09-11 03:21:00,
2013-09-10 21:26:00,60.3,58.3,29.97,NNE,29,1.1,1.1,93,0.04,-RA,-RA,0.33,0.0,WeatherDisplay:10.37,2013-09-11 03:26:00,
2013-09-10 21:31:00,60.2,58.2,29.97,NNE,29,0.1,2.3,93,0.03,-RA,-RA,0.33,0.0,WeatherDisplay:10.37,2013-09-11 03:31:00,
2013-09-10 21:36:00,60.1,58.1,29.97,NNE,29,0.0,1.1,93,0.03,-RA,-RA,0.33,0.0,WeatherDisplay:10.37,2013-09-11 03:36:00,
2013-09-10 21:41:00,60.0,58.0,29.98,NNE,29,0.2,3.4,93,0.02,-RA,-RA,0.33,0.0,WeatherDisplay:10.37,2013-09-11 03:41:00,
2013-09-10 21:46:00,60.0,58.0,29.97,NNE,29,0.0,2.3,93,0.01,-RA,-RA,0.33,0.0,WeatherDisplay:10.37,2013-09-11 03:46:00,
2013-09-10 21:51:00,60.0,58.0,29.97,NNE,29,0.0,0.0,93,0.01,-RA,-RA,0.33,0.0,WeatherDisplay:10.37,2013-09-11 03:51:00,
2013-09-10 21:56:00,60.0,58.0,29.97,NNE,29,0.8,3.4,93,0.01,-RA,-RA,0.33,0.0,WeatherDisplay:10.37,2013-09-11 03:56:00,
2013-09-10 22:01:00,60.0,58.0,29.97,NNE,29,1.2,3.4,93,0.01,-RA,-RA,0.33,0.0,WeatherDisplay:10.37,2013-09-11 04:01:00,
2013-09-10 22:06:00,60.0,58.0,29.97,NNE,29,0.6,2.3,93,0.00,-RA,-RA,0.33,0.0,WeatherDisplay:10.37,2013-09-11 04:06:00,
2013-09-10 22:11:00,60.0,58.0,29.97,NNE,29,0.5,1.0,93,0.00,-RA,-RA,0.33,0.0,WeatherDisplay:10.37,2013-09-11 04:11:00,
2013-09-10 22:16:00,60.0,58.0,29.97,NNE,29,1.1,3.4,93,0.00,-RA,-RA,0.33,0.0,WeatherDisplay:10.37,2013-09-11 04:16:00,
2013-09-10 22:21:00,60.0,58.0,29.97,NNE,29,0.0,0.0,93,0.00,-RA,-RA,0.33,0.0,WeatherDisplay:10.37,2013-09-11 04:21:00,
2013-09-10 22:26:00,60.0,58.0,29.97,NNE,29,0.0,1.1,93,0.00,-RA,-RA,0.33,0.0,WeatherDisplay:10.37,2013-09-11 04:26:00,
2013-09-10 22:31:00,60.0,58.0,29.97,NNE,29,0.0,2.3,93,0.00,-RA,-RA,0.33,0.0,WeatherDisplay:10.37,2013-09-11 04:31:00,
2013-09-10 22:36:00,60.0,58.3,29.97,NNE,29,0.2,2.0,94,0.00,-RA,-RA,0.33,0.0,WeatherDisplay:10.37,2013-09-11 04:36:00,
2013-09-10 22:41:00,60.0,58.3,29.97,NNE,29,1.6,3.4,94,0.00,-RA,-RA,0.33,0.0,WeatherDisplay:10.37,2013-09-11 04:41:00,
2013-09-10 22:46:00,60.0,58.3,29.97,NNE,29,0.0,0.0,94,0.00,-RA,-RA,0.33,0.0,WeatherDisplay:10.37,2013-09-11 04:46:00,
2013-09-10 22:51:00,60.0,58.3,29.97,NNE,29,0.0,0.0,94,0.00,-RA,-RA,0.33,0.0,WeatherDisplay:10.37,2013-09-11 04:51:00,
2013-09-10 22:56:00,60.0,58.3,29.97,NNE,29,0.0,0.0,94,0.00,-RA,-RA,0.33,0.0,WeatherDisplay:10.37,2013-09-11 04:56:00,
2013-09-10 23:01:00,60.1,58.4,29.97,NNE,29,0.4,1.1,94,0.00,-RA,-RA,0.33,0.0,WeatherDisplay:10.37,2013-09-11 05:01:00,
2013-09-10 23:06:00,60.1,58.4,29.96,NNE,29,0.0,1.1,94,0.00,-RA,-RA,0.33,0.0,WeatherDisplay:10.37,2013-09-11 05:06:00,
2013-09-10 23:11:00,60.1,58.4,29.96,NNE,29,0.9,1.1,94,0.00,-RA,-RA,0.33,0.0,WeatherDisplay:10.37,2013-09-11 05:11:00,
2013-09-10 23:16:00,60.0,58.3,29.96,NNE,29,0.0,0.0,94,0.00,-RA,-RA,0.33,0.0,WeatherDisplay:10.37,2013-09-11 05:16:00,
2013-09-10 23:21:00,60.0,58.3,29.95,NNE,29,0.0,1.1,94,0.00,-RA,-RA,0.33,0.0,WeatherDisplay:10.37,2013-09-11 05:21:00,
2013-09-10 23:26:00,59.9,58.2,29.95,NNE,29,1.5,3.4,94,0.00,-RA,-RA,0.34,0.0,WeatherDisplay:10.37,2013-09-11 05:26:00,
2013-09-10 23:31:00,59.9,58.2,29.95,NNE,29,1.0,3.4,94,0.01,-RA,-RA,0.34,0.0,WeatherDisplay:10.37,2013-09-11 05:31:00,
2013-09-10 23:36:00,59.8,58.1,29.95,NNE,29,0.7,2.3,94,0.01,-RA,-RA,0.34,0.0,WeatherDisplay:10.37,2013-09-11 05:36:00,
2013-09-10 23:41:00,59.8,58.1,29.95,NNE,29,0.7,3.4,94,0.01,OVC,OVC,0.34,0.0,WeatherDisplay:10.37,2013-09-11 05:41:00,
2013-09-10 23:46:00,59.8,58.1,29.95,NNE,29,0.2,2.0,94,0.01,OVC,OVC,0.34,0.0,WeatherDisplay:10.37,2013-09-11 05:46:00,
2013-09-10 23:51:00,59.8,58.1,29.95,NNE,29,0.0,0.0,94,0.01,-RA,-RA,0.34,0.0,WeatherDisplay:10.37,2013-09-11 05:51:00,
2013-09-10 23:56:00,59.7,58.0,29.95,NNE,29,0.0,0.0,94,0.01,-RA,-RA,0.34,0.0,WeatherDisplay:10.37,2013-09-11 05:56:00,